�������l�o���
Date,Time,MP-1(��Sv/h),MP-2(��Sv/h),MP-3(��Sv/h),MP-4(��Sv/h),MP-5(��Sv/h),MP-6(��Sv/h),MP-7(��Sv/h),MP-8(��Sv/h),����,����(m/s),���J
2021/06/02,00:00,0.629,0.937,0.589,1.134,0.814,0.372,0.648,0.605,��,5.6,��
2021/06/02,00:10,0.627,0.939,0.588,1.134,0.814,0.373,0.648,0.604,��,5.9,��
2021/06/02,00:20,0.629,0.937,0.588,1.133,0.814,0.373,0.649,0.606,��,6.4,��
2021/06/02,00:30,0.629,0.937,0.588,1.132,0.814,0.374,0.648,0.604,��,6.9,��
2021/06/02,00:40,0.627,0.937,0.589,1.135,0.814,0.373,0.647,0.607,��,7.2,��
2021/06/02,00:50,0.631,0.937,0.590,1.133,0.813,0.373,0.647,0.607,��,7.4,��
2021/06/02,01:00,0.628,0.938,0.587,1.133,0.815,0.372,0.648,0.606,��,7.6,��
2021/06/02,01:10,0.628,0.936,0.590,1.135,0.816,0.374,0.648,0.607,��,8.2,��
2021/06/02,01:20,0.629,0.938,0.588,1.133,0.815,0.375,0.647,0.606,��,7.9,��
2021/06/02,01:30,0.630,0.937,0.590,1.133,0.813,0.373,0.650,0.605,��,6.7,��
2021/06/02,01:40,0.630,0.938,0.588,1.134,0.815,0.374,0.650,0.607,��,6.4,��
2021/06/02,01:50,0.629,0.936,0.587,1.134,0.814,0.374,0.649,0.607,��,5.8,��
2021/06/02,02:00,0.631,0.935,0.588,1.133,0.816,0.373,0.648,0.605,��,4.8,��
2021/06/02,02:10,0.628,0.937,0.590,1.132,0.814,0.373,0.648,0.607,��,5.4,��
2021/06/02,02:20,0.629,0.938,0.588,1.134,0.815,0.374,0.649,0.605,��,5.4,��
2021/06/02,02:30,0.629,0.937,0.588,1.135,0.816,0.373,0.648,0.606,��,6.1,��
2021/06/02,02:40,0.630,0.937,0.589,1.132,0.813,0.373,0.648,0.606,��,7.9,��
2021/06/02,02:50,0.630,0.936,0.587,1.133,0.814,0.374,0.648,0.607,��,7.2,��
2021/06/02,03:00,0.630,0.937,0.588,1.135,0.815,0.374,0.648,0.606,��,6.2,��
2021/06/02,03:10,0.630,0.938,0.588,1.134,0.815,0.374,0.648,0.606,��,5.6,��
2021/06/02,03:20,0.629,0.934,0.587,1.135,0.815,0.375,0.648,0.605,��,5.3,��
2021/06/02,03:30,0.629,0.934,0.590,1.133,0.813,0.372,0.649,0.605,��,4.8,��
2021/06/02,03:40,0.633,0.936,0.588,1.133,0.814,0.374,0.649,0.606,��,5.0,��
2021/06/02,03:50,0.630,0.936,0.587,1.134,0.813,0.373,0.649,0.605,��,5.5,��
2021/06/02,04:00,0.630,0.937,0.588,1.133,0.814,0.373,0.648,0.605,��,5.7,��
2021/06/02,04:10,0.630,0.937,0.589,1.134,0.815,0.374,0.648,0.606,��,5.9,��
2021/06/02,04:20,0.629,0.935,0.590,1.131,0.813,0.373,0.649,0.606,��,5.8,��
2021/06/02,04:30,0.629,0.935,0.588,1.133,0.816,0.374,0.648,0.605,��,6.4,��
2021/06/02,04:40,0.628,0.938,0.589,1.134,0.814,0.374,0.648,0.606,��,5.5,��
2021/06/02,04:50,0.629,0.936,0.588,1.133,0.815,0.373,0.648,0.606,��쓌,5.4,��
2021/06/02,05:00,0.631,0.936,0.589,1.134,0.814,0.373,0.648,0.607,��쓌,5.5,��
2021/06/02,05:10,0.630,0.937,0.590,1.134,0.814,0.373,0.650,0.607,��,4.7,��
2021/06/02,05:20,0.628,0.935,0.588,1.136,0.814,0.374,0.648,0.606,��,4.0,��
2021/06/02,05:30,0.629,0.937,0.589,1.133,0.813,0.374,0.648,0.606,��,3.1,��
2021/06/02,05:40,0.629,0.937,0.589,1.135,0.815,0.372,0.649,0.606,��,4.5,��
2021/06/02,05:50,0.628,0.937,0.590,1.133,0.815,0.373,0.647,0.606,��,2.6,��
2021/06/02,06:00,0.629,0.935,0.589,1.133,0.815,0.373,0.648,0.606,��쓌,4.0,��
2021/06/02,06:10,0.628,0.936,0.588,1.133,0.815,0.372,0.649,0.606,��,5.3,��
2021/06/02,06:20,0.627,0.938,0.590,1.134,0.813,0.373,0.648,0.606,��쓌,6.1,��
2021/06/02,06:30,0.626,0.934,0.588,1.133,0.815,0.373,0.648,0.607,��쓌,6.7,��
2021/06/02,06:40,0.627,0.935,0.589,1.133,0.814,0.372,0.647,0.607,��,6.5,��
2021/06/02,06:50,0.628,0.935,0.591,1.131,0.815,0.371,0.647,0.605,��,6.4,��
2021/06/02,07:00,0.628,0.933,0.591,1.134,0.813,0.371,0.646,0.607,��,5.0,��
2021/06/02,07:10,0.629,0.933,0.590,1.132,0.813,0.372,0.646,0.605,��,5.3,��
2021/06/02,07:20,0.627,0.935,0.589,1.131,0.813,0.371,0.646,0.604,��쓌,5.7,��
2021/06/02,07:30,0.629,0.934,0.589,1.134,0.813,0.372,0.647,0.604,��쓌,5.9,��
2021/06/02,07:40,0.628,0.936,0.590,1.133,0.812,0.370,0.646,0.605,��,5.5,��
2021/06/02,07:50,0.628,0.935,0.588,1.132,0.811,0.372,0.645,0.604,��,5.3,��
2021/06/02,08:00,0.627,0.932,0.587,1.134,0.811,0.371,0.646,0.605,��,5.0,��
2021/06/02,08:10,0.628,0.933,0.591,1.134,0.813,0.371,0.647,0.605,��,4.3,��
2021/06/02,08:20,0.628,0.932,0.588,1.134,0.812,0.370,0.646,0.605,��,4.5,��
2021/06/02,08:30,0.628,0.932,0.589,1.133,0.813,0.372,0.647,0.606,��쓌,4.5,��
2021/06/02,08:40,0.629,0.933,0.587,1.133,0.813,0.371,0.650,0.605,��,5.3,�L
2021/06/02,08:50,0.629,0.934,0.588,1.134,0.812,0.371,0.646,0.605,��,5.2,�L
2021/06/02,09:00,0.628,0.932,0.588,1.133,0.812,0.372,0.647,0.604,��쓌,4.2,�L
2021/06/02,09:10,0.629,0.933,0.588,1.132,0.812,0.371,0.648,0.603,��쓌,4.2,�L
2021/06/02,09:20,0.629,0.932,0.588,1.134,0.812,0.372,0.648,0.604,��,4.0,�L
2021/06/02,09:30,0.629,0.934,0.587,1.132,0.813,0.373,0.647,0.604,��,3.9,��
2021/06/02,09:40,0.630,0.933,0.587,1.134,0.813,0.371,0.648,0.604,��,4.1,��
2021/06/02,09:50,0.628,0.930,0.588,1.134,0.812,0.371,0.647,0.603,��쓌,3.2,��
2021/06/02,10:00,0.629,0.933,0.587,1.134,0.815,0.373,0.647,0.604,��쐼,1.7,��
2021/06/02,10:10,0.630,0.932,0.587,1.136,0.813,0.372,0.648,0.604,�쓌,1.2,��
2021/06/02,10:20,0.629,0.932,0.588,1.134,0.812,0.372,0.648,0.605,-,CALM,��
2021/06/02,10:30,0.628,0.933,0.587,1.132,0.814,0.372,0.649,0.604,���k��,0.8,�L
2021/06/02,10:40,0.628,0.933,0.587,1.133,0.814,0.372,0.648,0.605,���k��,0.6,��
2021/06/02,10:50,0.627,0.932,0.585,1.133,0.814,0.372,0.648,0.605,�k��,1.2,��
2021/06/02,11:00,0.630,0.934,0.587,1.135,0.813,0.372,0.649,0.606,�k�k��,2.3,��
2021/06/02,11:10,0.629,0.933,0.588,1.135,0.817,0.372,0.648,0.606,�k�k��,1.7,��
2021/06/02,11:20,0.630,0.934,0.588,1.135,0.815,0.373,0.648,0.604,�k,2.3,��
2021/06/02,11:30,0.629,0.932,0.588,1.133,0.814,0.372,0.648,0.605,�k��,2.0,��
2021/06/02,11:40,0.628,0.934,0.588,1.135,0.815,0.373,0.647,0.605,���쓌,2.3,��
2021/06/02,11:50,0.627,0.935,0.589,1.134,0.815,0.371,0.648,0.604,�쓌,3.4,��
2021/06/02,12:00,0.628,0.937,0.587,1.133,0.815,0.372,0.649,0.605,��쓌,5.0,��
2021/06/02,12:10,0.632,0.934,0.589,1.131,0.815,0.373,0.648,0.606,��쓌,7.3,��
2021/06/02,12:20,0.630,0.936,0.589,1.133,0.815,0.373,0.649,0.607,��쓌,6.8,��
2021/06/02,12:30,0.630,0.936,0.590,1.134,0.816,0.371,0.650,0.605,��쓌,9.2,��
2021/06/02,12:40,0.632,0.936,0.590,1.131,0.816,0.374,0.648,0.605,��쓌,10.9,��
2021/06/02,12:50,0.632,0.937,0.589,1.132,0.816,0.372,0.648,0.605,��쓌,11.3,��
2021/06/02,13:00,0.630,0.937,0.589,1.135,0.817,0.373,0.649,0.606,��쓌,10.5,��
2021/06/02,13:10,0.632,0.936,0.587,1.135,0.818,0.373,0.648,0.606,��쓌,11.0,��
2021/06/02,13:20,0.630,0.935,0.589,1.136,0.817,0.372,0.647,0.606,��,10.9,��
2021/06/02,13:30,0.631,0.936,0.590,1.134,0.817,0.372,0.649,0.605,��쓌,12.2,��
2021/06/02,13:40,0.632,0.937,0.589,1.134,0.818,0.372,0.650,0.606,��,7.6,��
2021/06/02,13:50,0.632,0.935,0.591,1.134,0.815,0.372,0.650,0.607,��,8.3,��
2021/06/02,14:00,0.634,0.934,0.590,1.136,0.816,0.373,0.650,0.605,��쓌,8.3,��
2021/06/02,14:10,0.634,0.935,0.590,1.135,0.817,0.373,0.648,0.605,��쓌,8.2,��
2021/06/02,14:20,0.631,0.933,0.590,1.136,0.819,0.374,0.649,0.606,��,8.9,��
2021/06/02,14:30,0.632,0.936,0.590,1.137,0.818,0.374,0.650,0.605,��쓌,10.5,��
2021/06/02,14:40,0.631,0.936,0.589,1.137,0.818,0.374,0.648,0.605,��,13.8,��
2021/06/02,14:50,0.631,0.936,0.590,1.136,0.818,0.373,0.648,0.605,��,11.1,��
2021/06/02,15:00,0.630,0.936,0.589,1.137,0.819,0.374,0.649,0.604,��쓌,9.7,��
2021/06/02,15:10,0.632,0.937,0.590,1.136,0.817,0.373,0.649,0.606,��,8.8,��
2021/06/02,15:20,0.632,0.937,0.590,1.135,0.818,0.375,0.648,0.605,��,8.7,��
2021/06/02,15:30,0.633,0.935,0.590,1.135,0.817,0.374,0.649,0.605,��,5.7,��
2021/06/02,15:40,0.632,0.938,0.589,1.138,0.818,0.375,0.649,0.604,��,6.3,��
2021/06/02,15:50,0.633,0.938,0.589,1.136,0.816,0.374,0.649,0.607,��,7.8,��
2021/06/02,16:00,0.632,0.936,0.591,1.135,0.818,0.375,0.648,0.606,��,8.3,��
2021/06/02,16:10,0.631,0.938,0.591,1.135,0.817,0.376,0.649,0.606,��,7.9,��
2021/06/02,16:20,0.632,0.935,0.590,1.137,0.816,0.376,0.647,0.605,��,8.4,��
2021/06/02,16:30,0.633,0.937,0.589,1.138,0.818,0.375,0.649,0.605,��,9.3,��
2021/06/02,16:40,0.632,0.935,0.591,1.138,0.818,0.374,0.649,0.604,��,9.1,��
2021/06/02,16:50,0.632,0.936,0.589,1.138,0.819,0.374,0.649,0.605,��,7.9,��
2021/06/02,17:00,0.633,0.935,0.590,1.139,0.818,0.375,0.649,0.606,��,6.9,��
2021/06/02,17:10,0.633,0.938,0.589,1.139,0.818,0.373,0.650,0.605,��,6.7,��
2021/06/02,17:20,0.631,0.936,0.591,1.141,0.817,0.373,0.649,0.606,��,7.1,��
2021/06/02,17:30,0.631,0.939,0.589,1.139,0.817,0.373,0.649,0.605,��,7.5,��
2021/06/02,17:40,0.633,0.940,0.588,1.139,0.816,0.375,0.649,0.606,��,7.3,��
2021/06/02,17:50,0.632,0.941,0.588,1.136,0.817,0.376,0.649,0.605,��,6.5,��
2021/06/02,18:00,0.632,0.939,0.587,1.136,0.818,0.375,0.649,0.605,��,8.0,��
2021/06/02,18:10,0.632,0.939,0.590,1.140,0.819,0.375,0.648,0.606,��,8.1,��
2021/06/02,18:20,0.631,0.940,0.592,1.138,0.819,0.374,0.648,0.607,��,6.8,��
2021/06/02,18:30,0.632,0.940,0.590,1.140,0.815,0.374,0.647,0.607,��,7.6,��
2021/06/02,18:40,0.631,0.940,0.593,1.141,0.817,0.376,0.647,0.608,��,8.1,��
2021/06/02,18:50,0.630,0.939,0.591,1.141,0.819,0.375,0.648,0.609,��,8.4,��
2021/06/02,19:00,0.629,0.940,0.592,1.141,0.820,0.375,0.650,0.608,��,8.1,��
2021/06/02,19:10,0.631,0.939,0.591,1.140,0.819,0.376,0.650,0.610,��,8.4,��
2021/06/02,19:20,0.631,0.940,0.591,1.141,0.820,0.376,0.651,0.609,��,8.9,��
2021/06/02,19:30,0.632,0.941,0.592,1.140,0.820,0.376,0.652,0.607,��,8.4,��
2021/06/02,19:40,0.632,0.939,0.591,1.143,0.820,0.375,0.649,0.608,��,8.4,��
2021/06/02,19:50,0.631,0.943,0.592,1.142,0.820,0.375,0.649,0.608,��,8.1,��
2021/06/02,20:00,0.631,0.940,0.592,1.139,0.819,0.377,0.650,0.608,��,8.1,��
2021/06/02,20:10,0.631,0.942,0.593,1.142,0.821,0.376,0.652,0.608,��,7.0,��
2021/06/02,20:20,0.629,0.942,0.593,1.141,0.821,0.376,0.651,0.609,��,6.6,��
2021/06/02,20:30,0.630,0.942,0.593,1.143,0.820,0.375,0.651,0.608,��,6.5,��
2021/06/02,20:40,0.632,0.942,0.592,1.141,0.820,0.376,0.651,0.608,��,6.9,��
2021/06/02,20:50,0.630,0.942,0.593,1.140,0.821,0.375,0.651,0.607,��,7.6,��
2021/06/02,21:00,0.632,0.943,0.593,1.140,0.821,0.376,0.651,0.607,��,6.2,��
2021/06/02,21:10,0.631,0.943,0.591,1.141,0.820,0.374,0.651,0.609,��,6.6,��
2021/06/02,21:20,0.630,0.941,0.591,1.141,0.821,0.374,0.649,0.607,��,6.6,��
2021/06/02,21:30,0.632,0.941,0.591,1.139,0.821,0.375,0.651,0.606,��,7.0,��
2021/06/02,21:40,0.629,0.944,0.592,1.139,0.819,0.374,0.650,0.607,��,6.6,��
2021/06/02,21:50,0.630,0.942,0.591,1.143,0.823,0.375,0.650,0.608,��,6.1,��
2021/06/02,22:00,0.632,0.943,0.590,1.142,0.821,0.374,0.650,0.608,��,6.2,��
2021/06/02,22:10,0.632,0.941,0.592,1.139,0.821,0.375,0.651,0.608,��,6.6,��
2021/06/02,22:20,0.631,0.941,0.593,1.141,0.821,0.375,0.650,0.605,��,6.4,��
2021/06/02,22:30,0.632,0.943,0.591,1.141,0.819,0.376,0.649,0.606,��,6.6,��
2021/06/02,22:40,0.633,0.941,0.591,1.141,0.821,0.374,0.652,0.607,��,6.0,��
2021/06/02,22:50,0.634,0.944,0.591,1.144,0.819,0.376,0.651,0.607,��,5.3,��
2021/06/02,23:00,0.632,0.944,0.591,1.142,0.821,0.375,0.651,0.606,��,5.4,��
2021/06/02,23:10,0.632,0.942,0.591,1.139,0.820,0.377,0.650,0.607,��,5.9,��
2021/06/02,23:20,0.633,0.943,0.592,1.142,0.821,0.375,0.652,0.608,��쐼,5.6,��
2021/06/02,23:30,0.634,0.942,0.593,1.141,0.822,0.375,0.652,0.608,��쐼,5.5,��
2021/06/02,23:40,0.633,0.945,0.591,1.139,0.822,0.374,0.650,0.608,��,6.4,��
2021/06/02,23:50,0.633,0.942,0.591,1.139,0.820,0.374,0.650,0.608,��쐼,6.9,��
